Weather History for Three Rivers, MI

Change the Weather History Date:

Monday, February 18, 2013

  Actual Average Record
Temperature  
Mean Temperature 36 °F -  
Max Temperature 49 °F 36 °F 62 °F (1961)
Min Temperature 22 °F 19 °F -10 °F (1978)
Degree Days  
Heating Degree Days 30    
Moisture  
Dew Point 25 °F    
Average Humidity 65    
Maximum Humidity 90    
Minimum Humidity 54    
Precipitation  
Precipitation 0.00 in - - ()
Sea Level Pressure  
Sea Level Pressure 29.83 in    
Wind  
Wind Speed 11 mph (South)    
Max Wind Speed 22 mph    
Max Gust Speed 29 mph    
Visibility 10 miles    
Events Rain    
Averages and records for this station are not official NWS values.
T = Trace of Precipitation, MM = Missing Value Source: NWS Daily Summary

Daily Weather History Graph

Daily Weather History Graph

Search for Another Location

Airport:

Trip Planner

Search our weather history database for the weather conditions in past years. The results will help you decide how hot, cold, wet, or windy it might be!

Date:

Astronomy

Feb. 18, 2013 Rise Set
Actual Time 7:33 AM EST 6:19 PM EST
Civil Twilight 7:05 AM EST 6:47 PM EST
Nautical Twilight 6:32 AM EST 7:20 PM EST
Astronomical Twilight 6:00 AM EST 7:52 PM EST
Moon 12:02 PM EST (2/18) 2:15 AM EST (2/18)
Length of Visible Light 11h 42m
Length of Day
10h 45m
First Quarter, 58% of the Moon is Illuminated
Feb 18
First Quarter
Feb 25
Full
Mar 4
Last Quarter
Mar 11
New
Mar 19
First Quarter

Hourly Weather History & Observations

Time (EST) Temp. Windchill Dew Point Humidity Pressure Visibility Wind Dir Wind Speed Gust Speed Precip Events Conditions
12:15 AM 23.0 °F 13.1 °F 12.2 °F 63% 30.13 in 10.0 mi South 9.2 mph - N/A   Clear
12:35 AM 22.8 °F 12.9 °F 12.4 °F 64% 30.12 in 10.0 mi SSE 9.2 mph - N/A   Clear
12:54 AM 22.8 °F 14.5 °F 12.2 °F 64% 30.11 in 10.0 mi South 6.9 mph - N/A   Clear
1:15 AM 23.0 °F 13.1 °F 12.2 °F 63% 30.12 in 10.0 mi South 9.2 mph - N/A   Clear
1:34 AM 23.0 °F 14.7 °F 12.2 °F 63% 30.12 in 10.0 mi South 6.9 mph - N/A   Clear
1:55 AM 23.0 °F 14.7 °F 12.2 °F 63% 30.11 in 10.0 mi SSE 6.9 mph - N/A   Clear
2:15 AM 23.0 °F 14.7 °F 11.8 °F 62% 30.11 in 10.0 mi SSE 6.9 mph - N/A   Clear
2:34 AM 23.0 °F 14.7 °F 11.8 °F 62% 30.10 in 10.0 mi SSE 6.9 mph - N/A   Clear
2:55 AM 23.4 °F 15.2 °F 12.0 °F 62% 30.09 in 10.0 mi SSE 6.9 mph - N/A   Scattered Clouds
3:15 AM 23.9 °F 15.8 °F 12.2 °F 61% 30.08 in 10.0 mi SSE 6.9 mph - N/A   Overcast
3:34 AM 24.3 °F 15.4 °F 11.8 °F 59% 30.07 in 10.0 mi SSE 8.1 mph - N/A   Overcast
3:55 AM 24.6 °F 15.1 °F 12.0 °F 59% 30.06 in 10.0 mi SSE 9.2 mph - N/A   Overcast
4:14 AM 24.6 °F 15.8 °F 12.0 °F 59% 30.05 in 10.0 mi SSE 8.1 mph - N/A   Overcast
4:34 AM 24.8 °F 17.9 °F 12.2 °F 59% 30.04 in 10.0 mi SSE 5.8 mph - N/A   Overcast
4:55 AM 24.6 °F 17.7 °F 12.2 °F 59% 30.03 in 10.0 mi SSE 5.8 mph - N/A   Scattered Clouds
5:14 AM 24.6 °F 16.7 °F 12.2 °F 59% 30.02 in 10.0 mi SSE 6.9 mph - N/A   Scattered Clouds
5:35 AM 24.8 °F 15.3 °F 12.6 °F 60% 30.01 in 10.0 mi SSE 9.2 mph - N/A   Clear
5:55 AM 25.2 °F 16.5 °F 12.6 °F 59% 30.00 in 10.0 mi SSE 8.1 mph - N/A   Clear
6:14 AM 25.2 °F 17.3 °F 12.7 °F 59% 29.98 in 10.0 mi SSE 6.9 mph - N/A   Clear
6:35 AM 25.5 °F 15.5 °F 13.1 °F 59% 29.97 in 10.0 mi SSE 10.4 mph 16.1 mph N/A   Clear
6:55 AM 26.1 °F 16.2 °F 13.1 °F 58% 29.95 in 10.0 mi SSE 10.4 mph 16.1 mph N/A   Clear
7:14 AM 26.2 °F 15.8 °F 13.5 °F 59% 29.95 in 10.0 mi SSE 11.5 mph - N/A   Clear
7:35 AM 26.4 °F 16.6 °F 13.8 °F 59% 29.94 in 10.0 mi SSE 10.4 mph 16.1 mph N/A   Clear
7:55 AM 26.6 °F 16.2 °F 14.0 °F 59% 29.93 in 10.0 mi SSE 11.5 mph - N/A   Clear
8:14 AM 27.0 °F 16.1 °F 14.0 °F 58% 29.93 in 10.0 mi SSE 12.7 mph - N/A   Clear
8:35 AM 27.3 °F 16.6 °F 14.7 °F 59% 29.92 in 10.0 mi South 12.7 mph 19.6 mph N/A   Clear
9:14 AM 28.4 °F 17.5 °F 15.8 °F 59% 29.91 in 10.0 mi SSE 13.8 mph - N/A   Clear
9:35 AM 29.5 °F 19.3 °F 16.7 °F 59% 29.90 in 10.0 mi SSE 12.7 mph 18.4 mph N/A   Clear
9:54 AM 30.9 °F 21.2 °F 17.6 °F 58% 29.89 in 10.0 mi SSE 12.7 mph - N/A   Clear
10:15 AM 32.5 °F 22.7 °F 19.2 °F 58% 29.88 in 10.0 mi South 13.8 mph 18.4 mph N/A   Clear
10:34 AM 33.8 °F 24.8 °F 20.1 °F 57% 29.87 in 10.0 mi South 12.7 mph - N/A   Clear
10:55 AM 36.5 °F 28.2 °F 22.3 °F 56% 29.87 in 10.0 mi South 12.7 mph 20.7 mph N/A   Clear
11:14 AM 37.6 °F 28.1 °F 23.4 °F 57% 29.86 in 10.0 mi South 17.3 mph 23.0 mph N/A   Clear
11:34 AM 38.7 °F 30.5 °F 23.9 °F 55% 29.85 in 10.0 mi South 13.8 mph 19.6 mph N/A   Clear
11:55 AM 40.3 °F 32.2 °F 25.7 °F 56% 29.84 in 10.0 mi South 15.0 mph - N/A   Clear
12:14 PM 41.2 °F 33.7 °F 26.6 °F 56% 29.83 in 10.0 mi South 13.8 mph 18.4 mph N/A   Clear
12:35 PM 42.6 °F 35.9 °F 27.9 °F 56% 29.82 in 10.0 mi South 12.7 mph 18.4 mph N/A   Clear
12:55 PM 44.2 °F 37.6 °F 29.1 °F 55% 29.81 in 10.0 mi South 13.8 mph - N/A   Clear
1:14 PM 45.3 °F 39.0 °F 29.7 °F 54% 29.79 in 10.0 mi South 13.8 mph 18.4 mph N/A   Clear
1:35 PM 46.8 °F - 31.5 °F 55% 29.78 in 10.0 mi South 15.0 mph 21.9 mph N/A   Clear
1:55 PM 47.3 °F - 32.0 °F 55% 29.76 in 10.0 mi South 16.1 mph 23.0 mph N/A   Clear
2:14 PM 47.7 °F - 32.2 °F 55% 29.75 in 10.0 mi South 16.1 mph 19.6 mph N/A   Clear
2:35 PM 47.5 °F - 32.2 °F 55% 29.74 in 10.0 mi South 17.3 mph 23.0 mph N/A   Clear
2:55 PM 47.7 °F - 32.9 °F 57% 29.73 in 10.0 mi South 15.0 mph 19.6 mph N/A   Clear
3:14 PM 48.4 °F - 34.0 °F 58% 29.72 in 10.0 mi South 16.1 mph 20.7 mph N/A   Clear
3:35 PM 49.5 °F - 35.6 °F 59% 29.72 in 10.0 mi South 17.3 mph 20.7 mph N/A   Scattered Clouds
3:55 PM 48.9 °F - 35.6 °F 60% 29.71 in 10.0 mi South 11.5 mph - N/A   Overcast
4:14 PM 48.7 °F - 36.7 °F 63% 29.70 in 10.0 mi SSW 18.4 mph 24.2 mph N/A   Overcast
4:35 PM 48.6 °F - 37.4 °F 65% 29.70 in 10.0 mi South 11.5 mph - N/A   Overcast
4:54 PM 47.3 °F - 37.6 °F 69% 29.69 in 10.0 mi South 8.1 mph - N/A Rain Light Rain
5:15 PM 47.3 °F - 38.3 °F 71% 29.69 in 10.0 mi South 13.8 mph 20.7 mph N/A Rain Light Rain
5:35 PM 45.0 °F 38.9 °F 39.2 °F 80% 29.69 in 3.0 mi South 12.7 mph 18.4 mph N/A Rain Rain
6:15 PM 43.2 °F 38.4 °F 40.1 °F 89% 29.68 in 5.0 mi South 8.1 mph - N/A Rain Rain
6:35 PM 43.0 °F 37.7 °F 40.1 °F 90% 29.67 in 5.0 mi South 9.2 mph - N/A Rain Light Rain
6:54 PM 43.2 °F 37.4 °F 40.1 °F 89% 29.66 in 7.0 mi SSE 10.4 mph - N/A   Light Drizzle
7:15 PM 43.7 °F 38.1 °F 40.1 °F 87% 29.65 in 7.0 mi SSE 10.4 mph - N/A   Light Drizzle
7:35 PM 43.9 °F 37.5 °F 40.1 °F 87% 29.64 in 10.0 mi SSE 12.7 mph 17.3 mph N/A   Overcast
7:54 PM 44.4 °F 37.2 °F 40.1 °F 85% 29.64 in 10.0 mi South 16.1 mph 20.7 mph N/A   Light Drizzle
8:15 PM 45.3 °F 39.0 °F 38.7 °F 78% 29.62 in 10.0 mi South 13.8 mph - N/A   Overcast
8:34 PM 45.5 °F 38.6 °F 37.4 °F 73% 29.61 in 10.0 mi South 16.1 mph 21.9 mph N/A   Overcast
8:54 PM 45.1 °F 37.9 °F 37.4 °F 74% 29.60 in 10.0 mi South 17.3 mph - N/A   Overcast
9:15 PM 45.3 °F 39.0 °F 37.4 °F 74% 29.59 in 10.0 mi South 13.8 mph 21.9 mph N/A   Overcast
9:34 PM 44.6 °F 37.4 °F 37.6 °F 76% 29.59 in 10.0 mi South 16.1 mph 20.7 mph N/A   Drizzle
9:55 PM 44.1 °F 37.4 °F 38.1 °F 80% 29.58 in 10.0 mi South 13.8 mph 26.5 mph N/A Rain Rain
10:15 PM 43.3 °F 36.8 °F 38.7 °F 84% 29.56 in 10.0 mi South 12.7 mph 18.4 mph N/A Rain Light Rain
10:34 PM 43.5 °F 35.5 °F 38.8 °F 84% 29.54 in 7.0 mi South 18.4 mph 25.3 mph N/A Rain Rain
11:15 PM 43.7 °F 35.7 °F 38.8 °F 83% 29.51 in 7.0 mi South 18.4 mph 28.8 mph N/A Rain Light Rain
11:34 PM 43.2 °F 34.2 °F 39.2 °F 86% 29.50 in 10.0 mi South 21.9 mph 27.6 mph N/A Rain Light Rain
11:55 PM 43.3 °F 34.5 °F 39.4 °F 86% 29.49 in 7.0 mi South 21.9 mph 28.8 mph N/A Rain Light Rain